QPF
0.00 0.00 0.00 0.00 0.00 0.00 0.00 0.01 0.02 0.01 0.00 0.01 0.00 0.00 0.00 0.01 0.01 0.01 0.01 0.01 0.01 0.01 0.01 0.01 0.01 0.01 0.01 0.01 0.01 0.01 0.01 0.01 0.03 0.03 0.02 0.02 0.02 0.01 0.01 0.01 0.01 0.01 0.01 0.01
0.01 0.00 0.00 0.00 0.00 0.00 0.00 0.00 0.01 0.01 0.01 0.00 0.00 0.00 0.00 0.01 0.01 0.01 0.01 0.01 0.01 0.02 0.02 0.02 0.01 0.01 0.01 0.01 0.01 0.02 0.01 0.02 0.02 0.03 0.02 0.02 0.02 0.01 0.01 0.01 0.01 0.01 0.01 0.01
0.01 0.01 0.01 0.02 0.00 0.00 0.01 0.01 0.01 0.03 0.02 0.00 0.00 0.00 0.01 0.01 0.01 0.01 0.01 0.01 0.01 0.02 0.02 0.02 0.01 0.01 0.01 0.01 0.01 0.02 0.02 0.02 0.02 0.03 0.02 0.01 0.01 0.01 0.02 0.02 0.02 0.01 0.01 0.01
0.01 0.01 0.02 0.02 0.00 0.00 0.02 0.02 0.02 0.02 0.02 0.01 0.01 0.01 0.01 0.01 0.01 0.01 0.01 0.01 0.01 0.01 0.01 0.01 0.01 0.01 0.01 0.01 0.01 0.02 0.03 0.03 0.02 0.02 0.02 0.02 0.02 0.02 0.02 0.02 0.02 0.01 0.01 0.01
0.02 0.02 0.02 0.02 0.01 0.01 0.04 0.04 0.02 0.02 0.01 0.01 0.01 0.01 0.02 0.01 0.01 0.02 0.01 0.01 0.01 0.01 0.01 0.01 0.01 0.01 0.01 0.02 0.02 0.03 0.03 0.03 0.02 0.02 0.02 0.03 0.03 0.02 0.02 0.02 0.02 0.01 0.01 0.01
0.02 0.02 0.02 0.03 0.01 0.00 0.02 0.06 0.02 0.01 0.01 0.00 0.01 0.02 0.02 0.02 0.02 0.02 0.02 0.02 0.01 0.01 0.01 0.02 0.01 0.02 0.02 0.02 0.02 0.03 0.03 0.03 0.02 0.02 0.01 0.02 0.01 0.01 0.01 0.01 0.01 0.00 0.01 0.01
0.02 0.02 0.02 0.01 0.00 0.01 0.05 0.05 0.01 0.00 0.00 0.00 0.01 0.03 0.02 0.02 0.02 0.02 0.02 0.02 0.01 0.01 0.02 0.02 0.02 0.03 0.03 0.02 0.02 0.02 0.02 0.02 0.02 0.02 0.01 0.01 0.01 0.01 0.01 0.01 0.01 0.01 0.01 0.01
0.02 0.02 0.03 0.01 0.01 0.02 0.02 0.01 0.01 0.00 0.00 0.01 0.01 0.01 0.01 0.02 0.03 0.03 0.02 0.01 0.01 0.02 0.02 0.02 0.02 0.02 0.02 0.02 0.02 0.02 0.03 0.03 0.02 0.02 0.01 0.02 0.02 0.01 0.01 0.01 0.01 0.01 0.01 0.01
0.03 0.03 0.01 0.00 0.01 0.01 0.00 0.00 0.00 0.00 0.00 0.01 0.01 0.01 0.01 0.01 0.02 0.01 0.01 0.01 0.02 0.02 0.02 0.02 0.01 0.02 0.02 0.02 0.02 0.02 0.03 0.03 0.02 0.02 0.02 0.02 0.02 0.02 0.02 0.02 0.01 0.01 0.00 0.00
0.03 0.01 0.01 0.01 0.01 0.00 0.00 0.00 0.00 0.00 0.01 0.01 0.01 0.01 0.00 0.01 0.01 0.01 0.01 0.02 0.03 0.03 0.03 0.02 0.02 0.02 0.02 0.02 0.02 0.03 0.04 0.04 0.03 0.02 0.02 0.02 0.02 0.02 0.01 0.01 0.01 0.01 0.00 0.00
0.03 0.01 0.01 0.01 0.01 0.00 0.00 0.00 0.00 0.00 0.00 0.01 0.00 0.00 0.01 0.01 0.01 0.01 0.01 0.01 0.01 0.02 0.02 0.02 0.01 0.02 0.02 0.02 0.03 0.04 0.04 0.03 0.02 0.01 0.01 0.01 0.01 0.01 0.01 0.01 0.01 0.01 0.00 0.00
0.02 0.01 0.01 0.01 0.01 0.00 0.00 0.00 0.00 0.00 0.00 0.00 0.00 0.00 0.00 0.01 0.01 0.01 0.01 0.01 0.02 0.02 0.02 0.01 0.01 0.02 0.01 0.01 0.02 0.03 0.03 0.02 0.01 0.01 0.01 0.01 0.01 0.00 0.00 0.00 0.00 0.00 0.00 0.00
0.01 0.00 0.00 0.01 0.00 0.00 0.00 0.00 0.01 0.00 0.00 0.00 0.00 0.00 0.01 0.01 0.01 0.01 0.01 0.01 0.01 0.02 0.01 0.01 0.01 0.01 0.01 0.01 0.01 0.02 0.02 0.01 0.00 0.00 0.00 0.00 0.01 0.01 0.00 0.00 0.00 0.00 0.00 0.00
0.00 0.00 0.00 0.01 0.01 0.01 0.01 0.00 0.00 0.00 0.00 0.00 0.00 0.00 0.01 0.01 0.01 0.01 0.01 0.01 0.01 0.01 0.01 0.01 0.01 0.01 0.01 0.01 0.01 0.01 0.01 0.00 0.00 0.00 0.00 0.00 0.00 0.00 0.00 0.00 0.00 0.00 0.00 0.00
0.00 0.00 0.00 0.00 0.01 0.02 0.01 0.00 0.00 0.00 0.00 0.01 0.00 0.00 0.00 0.01 0.01 0.01 0.01 0.00 0.01 0.01 0.01 0.01 0.01 0.01 0.01 0.01 0.01 0.00 0.00 0.00 0.00 0.00 0.00 0.00 0.00 0.00 0.00 0.00 0.00 0.00 0.00 0.00
0.00 0.00 0.00 0.00 0.01 0.01 0.00 0.00 0.00 0.00 0.00 0.01 0.01 0.01 0.00 0.01 0.01 0.01 0.00 0.00 0.01 0.01 0.01 0.01 0.01 0.00 0.00 0.00 0.01 0.00 0.00 0.00 0.00 0.00 0.00 0.00 0.00 0.00 0.00 0.00 0.00 0.00 0.00 0.00
0.00 0.00 0.00 0.00 0.01 0.00 0.00 0.00 0.00 0.00 0.01 0.01 0.01 0.01 0.01 0.01 0.01 0.00 0.00 0.00 0.01 0.01 0.01 0.01 0.00 0.00 0.00 0.00 0.00 0.00 0.00 0.00 0.00 0.00 0.00 0.00 0.00 0.00 0.00 0.00 0.00 0.00 0.00 0.00
0.00 0.00 0.00 0.00 0.00 0.00 0.00 0.00 0.00 0.00 0.01 0.01 0.01 0.01 0.01 0.01 0.00 0.00 0.00 0.00 0.01 0.01 0.01 0.00 0.00 0.00 0.00 0.00 0.00 0.00 0.00 0.00 0.00 0.00 0.00 0.00 0.00 0.00 0.00 0.00 0.00 0.00 0.00 0.00
0.00 0.00 0.00 0.00 0.00 0.00 0.00 0.00 0.00 0.00 0.00 0.00 0.00 0.01 0.01 0.00 0.00 0.00 0.00 0.00 0.00 0.00 0.00 0.00 0.00 0.00 0.00 0.00 0.00 0.00 0.00 0.00 0.00 0.00 0.00 0.00 0.00 0.00 0.00 0.00 0.00 0.00 0.00 0.00
0.00 0.00 0.00 0.00 0.00 0.00 0.00 0.00 0.00 0.00 0.00 0.00 0.00 0.00 0.00 0.00 0.00 0.00 0.00 0.00 0.00 0.00 0.00 0.00 0.00 0.00 0.00 0.00 0.00 0.00 0.00 0.00 0.00 0.00 0.00 0.00 0.00 0.00 0.00 0.00 0.00 0.00 0.00 0.00
0.00 0.00 0.00 0.00 0.00 0.00 0.00 0.00 0.00 0.00 0.00 0.00 0.00 0.00 0.00 0.00 0.00 0.00 0.00 0.00 0.00 0.00 0.00 0.00 0.00 0.00 0.00 0.00 0.00 0.00 0.00 0.00 0.00 0.00 0.00 0.00 0.00 0.00 0.00 0.00 0.00 0.00 0.00 0.00
0.00 0.00 0.00 0.00 0.00 0.00 0.00 0.00 0.00 0.00 0.00 0.00 0.00 0.00 0.00 0.00 0.00 0.00 0.00 0.00 0.00 0.00 0.00 0.00 0.00 0.00 0.00 0.00 0.00 0.00 0.00 0.00 0.00 0.00 0.00 0.00 0.00 0.00 0.00 0.00 0.00 0.00 0.00 0.00
0.00 0.00 0.00 0.00 0.00 0.00 0.00 0.00 0.00 0.00 0.00 0.00 0.00 0.00 0.00 0.00 0.00 0.00 0.00 0.00 0.00 0.00 0.00 0.00 0.00 0.00 0.00 0.00 0.00 0.00 0.00 0.00 0.00 0.00 0.00 0.00 0.00 0.00 0.00 0.00 0.00 0.00 0.00 0.00
0.00 0.00 0.00 0.00 0.00 0.00 0.00 0.00 0.00 0.00 0.00 0.00 0.00 0.00 0.00 0.00 0.00 0.00 0.00 0.00 0.00 0.00 0.00 0.00 0.00 0.00 0.00 0.00 0.00 0.00 0.00 0.00 0.00 0.00 0.00 0.00 0.00 0.00 0.00 0.00 0.00 0.00 0.00 0.00
0.00 0.00 0.00 0.00 0.00 0.00 0.00 0.00 0.00 0.00 0.00 0.00 0.00 0.00 0.00 0.00 0.00 0.00 0.00 0.00 0.00 0.00 0.00 0.00 0.00 0.00 0.00 0.00 0.00 0.00 0.00 0.00 0.00 0.00 0.00 0.00 0.00 0.00 0.00 0.00 0.00 0.00 0.00 0.00
0.00 0.00 0.00 0.00 0.00 0.00 0.00 0.00 0.00 0.00 0.00 0.00 0.00 0.00 0.00 0.00 0.00 0.00 0.00 0.00 0.00 0.00 0.00 0.00 0.00 0.00 0.00 0.00 0.00 0.00 0.00 0.00 0.00 0.00 0.00 0.00 0.00 0.00 0.00 0.00 0.00 0.00 0.00 0.00
0.01 0.01 0.00 0.00 0.00 0.00 0.00 0.00 0.00 0.00 0.00 0.00 0.00 0.00 0.00 0.00 0.00 0.00 0.00 0.00 0.00 0.00 0.00 0.00 0.00 0.00 0.00 0.00 0.00 0.00 0.00 0.00 0.00 0.00 0.00 0.00 0.00 0.00 0.00 0.00 0.00 0.00 0.00 0.00
MSLP
1013.83 1013.34 1012.86 1012.42 1012.04 1011.73 1011.50 1011.37 1011.35 1011.48 1011.77 1012.26 1012.96 1013.86 1014.93 1016.13 1017.39 1018.63 1019.79 1020.80 1021.60 1022.19 1022.56 1022.76 1022.81 1022.77 1022.70 1022.63 1022.58 1022.56 1022.56 1022.57 1022.57 1022.54 1022.46 1022.35 1022.20 1022.04 1021.86 1021.70 1021.55 1021.41 1021.29 1021.17
1014.04 1013.49 1012.94 1012.41 1011.94 1011.55 1011.28 1011.14 1011.16 1011.36 1011.77 1012.38 1013.19 1014.19 1015.32 1016.53 1017.76 1018.94 1020.01 1020.91 1021.61 1022.12 1022.43 1022.59 1022.64 1022.61 1022.56 1022.52 1022.50 1022.51 1022.54 1022.58 1022.62 1022.65 1022.66 1022.64 1022.61 1022.57 1022.52 1022.47 1022.41 1022.34 1022.25 1022.13
1014.19 1013.64 1013.06 1012.49 1011.98 1011.56 1011.27 1011.14 1011.21 1011.48 1011.97 1012.67 1013.57 1014.62 1015.78 1016.98 1018.15 1019.25 1020.22 1021.01 1021.61 1022.03 1022.29 1022.41 1022.45 1022.43 1022.40 1022.37 1022.37 1022.39 1022.44 1022.51 1022.58 1022.67 1022.75 1022.83 1022.91 1023.00 1023.08 1023.14 1023.18 1023.19 1023.14 1023.04
1014.30 1013.79 1013.24 1012.68 1012.18 1011.76 1011.49 1011.39 1011.49 1011.82 1012.37 1013.12 1014.07 1015.14 1016.28 1017.44 1018.55 1019.56 1020.42 1021.12 1021.63 1021.98 1022.18 1022.28 1022.31 1022.29 1022.26 1022.24 1022.24 1022.27 1022.32 1022.40 1022.49 1022.61 1022.75 1022.91 1023.09 1023.29 1023.48 1023.65 1023.79 1023.87 1023.87 1023.80
1014.40 1013.95 1013.46 1012.95 1012.49 1012.11 1011.86 1011.80 1011.94 1012.30 1012.88 1013.66 1014.61 1015.67 1016.78 1017.89 1018.92 1019.84 1020.62 1021.23 1021.68 1021.98 1022.15 1022.23 1022.25 1022.24 1022.22 1022.20 1022.20 1022.21 1022.25 1022.31 1022.41 1022.53 1022.70 1022.92 1023.16 1023.44 1023.71 1023.98 1024.19 1024.34 1024.40 1024.37
1014.50 1014.12 1013.70 1013.26 1012.85 1012.52 1012.32 1012.29 1012.46 1012.84 1013.43 1014.20 1015.13 1016.16 1017.22 1018.26 1019.22 1020.07 1020.78 1021.34 1021.74 1022.02 1022.19 1022.27 1022.31 1022.31 1022.29 1022.27 1022.26 1022.26 1022.27 1022.31 1022.38 1022.49 1022.66 1022.89 1023.17 1023.49 1023.82 1024.14 1024.42 1024.62 1024.74 1024.75
1014.61 1014.29 1013.94 1013.56 1013.21 1012.93 1012.78 1012.77 1012.96 1013.34 1013.92 1014.67 1015.57 1016.54 1017.54 1018.52 1019.42 1020.22 1020.88 1021.41 1021.81 1022.09 1022.27 1022.39 1022.45 1022.48 1022.48 1022.47 1022.45 1022.42 1022.41 1022.41 1022.45 1022.53 1022.68 1022.89 1023.17 1023.50 1023.85 1024.21 1024.52 1024.78 1024.94 1025.01
1014.75 1014.47 1014.16 1013.84 1013.54 1013.31 1013.18 1013.20 1013.40 1013.77 1014.33 1015.04 1015.88 1016.80 1017.74 1018.65 1019.51 1020.26 1020.91 1021.44 1021.85 1022.16 1022.38 1022.54 1022.65 1022.72 1022.75 1022.76 1022.74 1022.70 1022.66 1022.63 1022.63 1022.68 1022.79 1022.97 1023.23 1023.54 1023.89 1024.26 1024.59 1024.88 1025.09 1025.21
1014.91 1014.65 1014.36 1014.08 1013.81 1013.62 1013.52 1013.56 1013.75 1014.11 1014.64 1015.31 1016.09 1016.95 1017.83 1018.69 1019.50 1020.24 1020.88 1021.41 1021.85 1022.21 1022.49 1022.71 1022.87 1022.99 1023.07 1023.10 1023.09 1023.06 1023.00 1022.95 1022.92 1022.93 1023.01 1023.15 1023.38 1023.66 1024.00 1024.36 1024.70 1025.01 1025.26 1025.43
1015.10 1014.83 1014.55 1014.28 1014.04 1013.87 1013.80 1013.85 1014.05 1014.40 1014.89 1015.52 1016.25 1017.05 1017.88 1018.69 1019.46 1020.18 1020.81 1021.37 1021.84 1022.24 1022.57 1022.85 1023.07 1023.25 1023.36 1023.43 1023.45 1023.42 1023.37 1023.31 1023.27 1023.25 1023.30 1023.42 1023.61 1023.88 1024.19 1024.54 1024.88 1025.20 1025.48 1025.69
1015.27 1014.98 1014.70 1014.45 1014.23 1014.09 1014.04 1014.11 1014.32 1014.66 1015.14 1015.73 1016.42 1017.16 1017.94 1018.70 1019.44 1020.13 1020.76 1021.32 1021.82 1022.25 1022.63 1022.95 1023.23 1023.44 1023.60 1023.70 1023.75 1023.75 1023.71 1023.66 1023.61 1023.60 1023.63 1023.73 1023.91 1024.15 1024.45 1024.78 1025.12 1025.45 1025.73 1025.96
1015.40 1015.09 1014.81 1014.57 1014.38 1014.27 1014.26 1014.36 1014.59 1014.94 1015.41 1015.98 1016.63 1017.34 1018.06 1018.79 1019.48 1020.14 1020.75 1021.31 1021.81 1022.26 1022.67 1023.02 1023.32 1023.57 1023.76 1023.89 1023.96 1023.98 1023.97 1023.93 1023.90 1023.89 1023.93 1024.03 1024.19 1024.43 1024.71 1025.03 1025.36 1025.69 1025.97 1026.21
1015.43 1015.11 1014.84 1014.62 1014.47 1014.41 1014.45 1014.60 1014.86 1015.24 1015.72 1016.28 1016.91 1017.58 1018.27 1018.95 1019.61 1020.23 1020.81 1021.35 1021.84 1022.29 1022.69 1023.05 1023.36 1023.62 1023.83 1023.97 1024.06 1024.10 1024.11 1024.09 1024.08 1024.09 1024.14 1024.25 1024.41 1024.64 1024.92 1025.23 1025.55 1025.86 1026.13 1026.36
1015.32 1015.02 1014.77 1014.58 1014.49 1014.49 1014.59 1014.80 1015.12 1015.54 1016.04 1016.61 1017.24 1017.88 1018.54 1019.18 1019.80 1020.38 1020.93 1021.43 1021.90 1022.33 1022.71 1023.06 1023.36 1023.62 1023.82 1023.97 1024.06 1024.11 1024.13 1024.13 1024.13 1024.16 1024.23 1024.34 1024.51 1024.74 1025.01 1025.31 1025.61 1025.90 1026.16 1026.36
1015.05 1014.77 1014.56 1014.43 1014.40 1014.47 1014.65 1014.93 1015.32 1015.79 1016.33 1016.92 1017.55 1018.19 1018.82 1019.43 1020.01 1020.56 1021.07 1021.54 1021.98 1022.38 1022.74 1023.06 1023.34 1023.58 1023.76 1023.90 1023.98 1024.03 1024.05 1024.06 1024.07 1024.10 1024.18 1024.30 1024.47 1024.70 1024.96 1025.24 1025.53 1025.80 1026.03 1026.20
1014.63 1014.38 1014.22 1014.15 1014.19 1014.34 1014.61 1014.97 1015.43 1015.96 1016.55 1017.17 1017.81 1018.45 1019.06 1019.65 1020.21 1020.72 1021.20 1021.64 1022.05 1022.42 1022.75 1023.05 1023.31 1023.52 1023.68 1023.79 1023.86 1023.90 1023.91 1023.91 1023.92 1023.95 1024.02 1024.14 1024.31 1024.53 1024.77 1025.04 1025.31 1025.55 1025.76 1025.90
1014.08 1013.87 1013.76 1013.77 1013.89 1014.12 1014.47 1014.91 1015.44 1016.03 1016.66 1017.32 1017.97 1018.61 1019.23 1019.80 1020.34 1020.83 1021.29 1021.71 1022.09 1022.44 1022.75 1023.03 1023.26 1023.45 1023.59 1023.68 1023.73 1023.74 1023.73 1023.72 1023.71 1023.74 1023.79 1023.90 1024.06 1024.26 1024.49 1024.74 1024.99 1025.21 1025.40 1025.52
1013.46 1013.30 1013.26 1013.33 1013.53 1013.84 1014.27 1014.78 1015.37 1016.02 1016.69 1017.37 1018.04 1018.68 1019.29 1019.85 1020.38 1020.86 1021.30 1021.71 1022.08 1022.42 1022.72 1022.99 1023.21 1023.38 1023.51 1023.58 1023.61 1023.60 1023.57 1023.53 1023.51 1023.51 1023.55 1023.64 1023.77 1023.96 1024.17 1024.40 1024.63 1024.83 1025.00 1025.12
1012.85 1012.74 1012.76 1012.90 1013.17 1013.55 1014.04 1014.62 1015.26 1015.94 1016.64 1017.34 1018.01 1018.65 1019.25 1019.81 1020.32 1020.79 1021.23 1021.63 1022.00 1022.34 1022.65 1022.92 1023.14 1023.31 1023.43 1023.49 1023.51 1023.48 1023.43 1023.37 1023.33 1023.30 1023.32 1023.38 1023.50 1023.66 1023.85 1024.06 1024.27 1024.47 1024.63 1024.74
1012.30 1012.25 1012.33 1012.54 1012.87 1013.31 1013.85 1014.47 1015.14 1015.85 1016.56 1017.26 1017.93 1018.56 1019.15 1019.69 1020.19 1020.65 1021.09 1021.49 1021.86 1022.21 1022.53 1022.81 1023.04 1023.22 1023.35 1023.41 1023.42 1023.39 1023.33 1023.26 1023.19 1023.14 1023.13 1023.17 1023.26 1023.40 1023.57 1023.76 1023.96 1024.14 1024.30 1024.41
1011.86 1011.87 1012.01 1012.27 1012.65 1013.14 1013.71 1014.36 1015.05 1015.76 1016.47 1017.16 1017.81 1018.43 1019.00 1019.52 1020.00 1020.46 1020.88 1021.28 1021.67 1022.03 1022.36 1022.65 1022.91 1023.11 1023.24 1023.32 1023.34 1023.31 1023.25 1023.17 1023.08 1023.02 1022.99 1023.00 1023.07 1023.18 1023.33 1023.50 1023.69 1023.86 1024.01 1024.12
1011.56 1011.62 1011.80 1012.11 1012.52 1013.03 1013.62 1014.27 1014.96 1015.66 1016.36 1017.03 1017.67 1018.25 1018.80 1019.30 1019.77 1020.20 1020.62 1021.02 1021.41 1021.78 1022.13 1022.45 1022.72 1022.95 1023.11 1023.21 1023.24 1023.23 1023.17 1023.08 1022.99 1022.92 1022.87 1022.86 1022.90 1022.99 1023.11 1023.26 1023.43 1023.59 1023.73 1023.84
1011.38 1011.48 1011.69 1012.01 1012.44 1012.95 1013.54 1014.18 1014.86 1015.54 1016.21 1016.86 1017.47 1018.03 1018.55 1019.03 1019.48 1019.90 1020.31 1020.70 1021.09 1021.47 1021.84 1022.17 1022.47 1022.72 1022.91 1023.04 1023.10 1023.10 1023.05 1022.98 1022.89 1022.80 1022.74 1022.71 1022.73 1022.79 1022.89 1023.01 1023.15 1023.30 1023.42 1023.52
1011.29 1011.40 1011.62 1011.93 1012.34 1012.84 1013.41 1014.03 1014.68 1015.33 1015.98 1016.60 1017.18 1017.72 1018.22 1018.68 1019.11 1019.52 1019.92 1020.31 1020.70 1021.09 1021.47 1021.82 1022.14 1022.41 1022.63 1022.79 1022.87 1022.90 1022.87 1022.81 1022.73 1022.64 1022.57 1022.52 1022.52 1022.55 1022.62 1022.72 1022.83 1022.95 1023.05 1023.14
1011.26 1011.35 1011.53 1011.81 1012.19 1012.65 1013.18 1013.76 1014.37 1015.00 1015.62 1016.22 1016.78 1017.30 1017.79 1018.23 1018.65 1019.06 1019.45 1019.84 1020.23 1020.62 1021.00 1021.37 1021.71 1022.00 1022.25 1022.43 1022.55 1022.60 1022.60 1022.55 1022.47 1022.39 1022.31 1022.25 1022.23 1022.23 1022.28 1022.35 1022.43 1022.53 1022.61 1022.68
1011.22 1011.26 1011.39 1011.61 1011.93 1012.33 1012.81 1013.35 1013.92 1014.52 1015.11 1015.69 1016.24 1016.75 1017.23 1017.67 1018.09 1018.49 1018.88 1019.26 1019.65 1020.04 1020.43 1020.80 1021.16 1021.47 1021.74 1021.94 1022.09 1022.17 1022.19 1022.16 1022.10 1022.02 1021.94 1021.88 1021.84 1021.83 1021.85 1021.89 1021.96 1022.03 1022.10 1022.15
1011.14 1011.11 1011.16 1011.31 1011.56 1011.90 1012.32 1012.80 1013.33 1013.90 1014.47 1015.03 1015.58 1016.09 1016.56 1017.01 1017.42 1017.82 1018.20 1018.59 1018.97 1019.36 1019.75 1020.12 1020.48 1020.81 1021.09 1021.31 1021.48 1021.58 1021.63 1021.62 1021.58 1021.52 1021.45 1021.38 1021.34 1021.32 1021.33 1021.36 1021.41 1021.47 1021.53 1021.58
Thickness
5680 5685 5686 5684 5684 5686 5683 5683 5676 5679 5677 5671 5657 5645 5632 5619 5607 5597 5589 5583 5577 5571 5565 5561 5557 5554 5551 5549 5547 5546 5544 5543 5541 5540 5540 5541 5541 5541 5542 5544 5546 5547 5548 5549
5672 5681 5682 5680 5683 5684 5682 5681 5679 5677 5669 5665 5653 5639 5623 5611 5601 5591 5583 5576 5570 5564 5558 5553 5550 5547 5544 5541 5539 5538 5536 5535 5533 5532 5532 5531 5531 5532 5533 5534 5535 5537 5538 5538
5666 5676 5675 5669 5677 5678 5677 5678 5674 5668 5662 5653 5639 5628 5617 5606 5597 5588 5579 5571 5564 5558 5553 5547 5543 5540 5537 5534 5532 5531 5529 5527 5526 5525 5524 5524 5524 5524 5524 5524 5526 5527 5527 5527
5663 5664 5653 5666 5680 5677 5673 5669 5669 5664 5655 5646 5633 5623 5614 5604 5594 5583 5574 5566 5558 5553 5546 5540 5536 5533 5531 5528 5526 5524 5522 5521 5519 5518 5517 5516 5516 5516 5516 5516 5517 5517 5518 5517
5658 5659 5662 5666 5670 5669 5664 5659 5658 5652 5642 5632 5622 5611 5600 5595 5587 5579 5569 5560 5553 5547 5540 5535 5531 5528 5525 5522 5521 5519 5517 5515 5514 5513 5512 5511 5510 5509 5510 5509 5509 5510 5510 5509
5654 5649 5648 5653 5665 5669 5661 5648 5649 5645 5635 5626 5618 5612 5598 5588 5580 5570 5561 5554 5547 5541 5535 5530 5526 5523 5521 5518 5516 5514 5512 5510 5509 5508 5507 5506 5505 5504 5504 5504 5504 5504 5503 5502
5651 5650 5654 5654 5662 5664 5647 5637 5643 5640 5632 5625 5620 5616 5599 5584 5573 5563 5555 5548 5542 5536 5530 5526 5522 5520 5517 5515 5513 5511 5509 5507 5505 5504 5503 5502 5501 5500 5500 5500 5499 5498 5497 5496
5649 5645 5641 5649 5656 5645 5637 5641 5640 5634 5628 5620 5611 5602 5589 5578 5567 5557 5549 5543 5537 5531 5526 5523 5520 5518 5515 5512 5510 5508 5506 5504 5503 5502 5502 5500 5498 5497 5497 5497 5496 5495 5495 5494
5643 5641 5642 5644 5640 5639 5640 5637 5635 5629 5622 5613 5602 5591 5581 5571 5561 5553 5546 5540 5534 5529 5524 5521 5519 5517 5514 5511 5509 5507 5505 5502 5501 5500 5499 5498 5497 5496 5496 5496 5498 5497 5497 5496
5642 5642 5640 5639 5638 5637 5637 5635 5631 5624 5616 5607 5597 5586 5575 5566 5557 5550 5543 5537 5532 5528 5524 5520 5517 5515 5512 5509 5507 5505 5503 5501 5500 5499 5498 5497 5497 5498 5498 5498 5498 5498 5498 5496
5637 5637 5636 5634 5633 5632 5631 5629 5624 5617 5611 5602 5593 5582 5573 5563 5555 5548 5542 5536 5532 5528 5524 5520 5517 5514 5511 5509 5506 5505 5503 5502 5501 5501 5499 5497 5496 5493 5494 5492 5492 5495 5496 5496
5632 5631 5632 5628 5629 5628 5625 5622 5617 5611 5604 5597 5590 5580 5571 5562 5555 5548 5542 5537 5533 5529 5525 5521 5518 5514 5511 5509 5508 5506 5504 5504 5505 5504 5502 5501 5498 5494 5487 5489 5487 5487 5487 5488
5630 5631 5630 5627 5626 5624 5621 5618 5613 5607 5600 5593 5585 5577 5569 5561 5555 5549 5543 5539 5534 5530 5527 5523 5519 5516 5513 5511 5510 5508 5507 5506 5507 5507 5506 5505 5503 5501 5497 5491 5488 5487 5487 5486
5628 5627 5624 5624 5622 5620 5617 5613 5609 5602 5596 5589 5582 5575 5568 5561 5556 5550 5545 5541 5536 5532 5528 5524 5521 5518 5515 5513 5512 5511 5510 5507 5509 5509 5509 5508 5507 5507 5506 5504 5502 5499 5492 5489
5628 5628 5626 5623 5620 5616 5613 5609 5604 5597 5591 5585 5580 5574 5568 5563 5557 5552 5547 5543 5538 5534 5531 5527 5524 5520 5518 5517 5515 5514 5514 5514 5513 5513 5513 5512 5511 5512 5511 5510 5509 5508 5506 5499
5627 5626 5624 5621 5617 5614 5611 5607 5603 5597 5591 5585 5580 5575 5570 5565 5559 5554 5549 5545 5541 5537 5534 5530 5527 5524 5522 5521 5519 5518 5517 5512 5514 5517 5518 5517 5517 5517 5517 5516 5515 5514 5513 5511
5625 5623 5622 5620 5617 5614 5612 5609 5605 5599 5593 5588 5583 5578 5572 5567 5562 5556 5552 5548 5545 5541 5537 5534 5531 5529 5527 5525 5524 5526 5524 5520 5515 5521 5523 5523 5523 5522 5521 5521 5521 5520 5518 5514
5631 5630 5628 5625 5622 5618 5614 5611 5607 5601 5596 5591 5585 5579 5574 5570 5565 5560 5556 5552 5547 5544 5541 5538 5535 5533 5532 5530 5530 5532 5531 5530 5529 5529 5528 5527 5527 5526 5526 5526 5526 5525 5523 5520
5632 5631 5629 5627 5625 5622 5617 5613 5609 5605 5600 5594 5588 5583 5578 5574 5569 5564 5560 5556 5552 5548 5546 5543 5538 5537 5536 5535 5533 5534 5536 5536 5535 5534 5533 5528 5530 5532 5532 5532 5531 5531 5530 5529
5632 5632 5631 5629 5627 5624 5619 5616 5611 5606 5602 5597 5592 5586 5582 5578 5573 5568 5564 5562 5560 5558 5553 5548 5543 5543 5542 5540 5537 5542 5543 5542 5542 5540 5539 5539 5539 5538 5538 5538 5537 5536 5535 5534
5631 5631 5630 5629 5627 5625 5622 5618 5613 5608 5604 5601 5596 5592 5587 5582 5578 5574 5570 5568 5565 5562 5558 5551 5551 5551 5549 5547 5541 5549 5549 5548 5548 5547 5546 5546 5545 5544 5544 5544 5543 5542 5541 5540
5630 5630 5630 5629 5627 5625 5622 5619 5615 5611 5607 5603 5600 5597 5591 5586 5583 5579 5577 5576 5572 5566 5564 5561 5560 5558 5556 5552 5554 5556 5556 5555 5554 5554 5553 5552 5551 5550 5550 5549 5549 5549 5548 5547
5629 5629 5629 5629 5627 5625 5623 5620 5617 5614 5610 5607 5604 5601 5598 5594 5592 5588 5584 5582 5579 5571 5571 5572 5568 5562 5558 5558 5562 5563 5562 5561 5561 5561 5560 5558 5557 5557 5556 5556 5556 5555 5554 5553
5628 5629 5629 5629 5628 5626 5623 5621 5619 5617 5614 5612 5609 5606 5603 5599 5597 5596 5594 5587 5583 5577 5578 5576 5569 5565 5561 5566 5568 5569 5569 5568 5567 5567 5567 5566 5565 5564 5564 5563 5562 5562 5561 5560
5627 5628 5628 5628 5627 5627 5626 5623 5621 5618 5616 5615 5614 5611 5608 5607 5605 5603 5600 5595 5588 5582 5583 5579 5573 5570 5570 5574 5576 5576 5576 5576 5575 5575 5574 5573 5572 5572 5571 5570 5570 5569 5568 5567
5624 5626 5627 5627 5630 5631 5630 5628 5626 5623 5622 5620 5618 5616 5614 5612 5610 5608 5604 5601 5597 5589 5590 5590 5584 5577 5580 5582 5583 5583 5583 5582 5580 5578 5579 5579 5579 5578 5578 5577 5576 5575 5575 5574
5622 5624 5625 5627 5629 5631 5632 5631 5630 5629 5627 5625 5624 5622 5620 5617 5615 5613 5610 5608 5605 5599 5598 5599 5597 5593 5592 5591 5592 5591 5590 5589 5588 5587 5586 5586 5585 5585 5584 5583 5582 5581 5580 5580